User: anonymous   Login
Location: Chequamegon National Forest
(46.1070°N, 90.8420°W)
Time: 02:59:00
(UTC-06:00)
Language:

ISS - Orbit

View from above orbital plane
View from above orbital plane
View from above satellite
View from above satellite

Ground track
Ground track

The orbit data is extracted from the following two-line orbital elements,

1 25544U 98067A   17058.59044581  .00016717  00000-0  10270-3 0  9037
2 25544  51.6402 224.6290 0006545 240.0561 119.9942 15.54467188  4708
Epoch (UTC): 27 February 2017 14:10:14
Eccentricity: 0.0006545
inclination: 51.6402°
perigee height: 399 km
apogee height: 408 km
right ascension of ascending node: 224.6290°
argument of perigee: 240.0561°
revolutions per day: 15.54467188
mean anomaly at epoch: 119.9942°
orbit number at epoch: 470

The dashed part of the orbit path shows where the satellite is in the earth's shadow,  

DLR